Showing default

COSMOS 2042, 20236

Orbit data source: Space-Track

COSMOS 2042, 20236 is a payload satellite owned by UNKS (CIS) in LEO that was launched on Thu, 14 Sep 1989 UTC via a TSIKLON-3 launch vehicle from the Plesetsk Missile And Space Complex (PKMTR). Payload-class satellites include a variety of spacecraft equipped with specific instruments for various scientific and technological missions. These include communications satellites like Starlink; space stations such as the ISS; scientific satellites like the Hubble; Earth observation satellites from companies like Planet Labs, Umbra, and HawkEye 360; GPS; miniature CubeSats for education and research; and military/defense satellites.

Loading next visibility...
Identifier
20236, 1989-074E
Orbit
LEO
Country
Flag of CISCIS
Related business
Manufacturer
NPO PM
Mission
Defense Communications
Bus & Motor
STRELA-3, Unknown motor
Mass
225 kg wet, 225 kg dry
Launch date (UTC)
1989-09-14 (37 years ago)
Launch vehicle
TSIKLON-3
Launch site
Plesetsk Missile And Space Complex (PKMTR)
Object type
Payload
Rocket body
Debris
Shape & HBR
Cyl + 1 Ant, 3.5 m
Radar Cross Section
1.583 m², Large (>1 m²)

Expand to show TLE details & history
Last TLE update: 14 hours ago

TLE from 14 hours ago
0 COSMOS 2042
1 20236U 89074E   26122.08705295  .00000000  00000-0 -56356-4 0  9990
2 20236  82.5817 247.8446 0004442 227.3582 305.8142 12.64230630805849
Epoch: 2026-05-02T02:05Z
TLE epoch observation values (Epoch: 2026-05-02T02:05:21.374Z)
Latitude
6.7414°
Longitude
175.61805°
Altitude
1,405.622 km
Speed
7.159 km/s
True Right ascension
04h 27m 52s
True Declination
6° 42' 17"
Sunlit
Object was in daylight at epoch
Visualization orbit readout
Latitude
Unknown
Longitude
Unknown
Altitude
Unknown
Speed
Unknown
Apparent Right ascension
Unknown
Apparent Declination
Unknown
Sunlit
N/A
Visualization observer readout
Local Sidereal Time
23:20:24
Azimuth
Unknown
Elevation
Unknown
Doppler factor
Unknown
Orbital elements
Apogee altitude
1,406.305 km
Perigee altitude
1,399.393 km
Semi-major axis
7,780.986 km
Eccentricity
0.00044
Inclination
82.5817°
RAAN
247.8446°
Arg. of periapsis
227.3582°
True anomaly
305.77291°
Mean anomaly
305.8142°
Eccentric anomaly
305.79356°
Mean motion
3.16221 °/min
Orbital period
113.84 mins
BSTAR
-0.000056356
Loading maneuver chart data...
Computing Atmospheric mass density...
Loading historical data...
Loading historical data...
Loading historical data...
Loading historical data...
Loading historical data...
Loading historical data...
Loading historical data...

Documentation

Showing up to 5 results
|